[[{"header":{"parameterUnit":"m.s-1","parameterCategory":1,"la1":30.2991,"la2":30.254,"lo1":-89.0895,"lo2":-89.0444,"dy":0.0017,"dx":0.0017,"nx":28,"ny":28,"refTime":"2024-04-03T03:00:00:Z","depth":0,"parameterNumber":2,"parameterNumberName":"U-component_of_WINDS"},"data":[0,0,0,0,0,0,0,0,0,0,0,0,0,0,0,0,0,0,0,0,0,0,0,0,0,0,0,0,0,0,0,0,0,0,0,0,0,0,0,0,0,0,0,0,0,0,0,0,0,0,0,0,0,0,0,0,0,0,4.5153,4.5153,0,4.5227,4.5228,4.5229,4.5215,4.5214,4.5212,4.5211,4.5287,4.529,4.5293,0,0,0,0,0,0,0,0,0,0,0,0,0,4.4998,4.5001,4.5153,4.5153,4.5154,4.5227,4.5228,4.5229,4.5215,4.5214,4.5212,4.521,4.5286,4.529,4.5294,0,0,0,0,0,0,0,0,0,0,0,0,0,4.5068,4.5002,4.5152,4.5156,4.5157,4.5227,4.5228,4.523,4.5215,4.5213,4.5211,4.521,4.5285,4.5289,4.5294,4.5365,0,0,4.5309,4.5311,0,0,0,0,0,0,0,0,4.5064,4.5074,4.5155,4.5156,4.5157,4.521,4.5202,4.5275,4.5216,4.5193,4.5211,4.5209,4.5263,4.5269,4.5288,4.5368,4.5372,4.531,4.5313,4.5315,4.5316,0,0,0,0,0,0,0,4.506,4.5071,4.5182,4.5156,4.5158,4.5154,4.5162,4.5216,4.5238,4.5195,4.5194,4.5203,4.5263,4.5283,4.529,4.5373,4.531,4.5314,4.5317,4.5319,4.5517,4.552,0,0,0,0,0,0,4.5053,4.5067,4.518,4.5184,4.5105,4.5159,4.5167,4.5195,4.5238,4.5242,4.5205,4.5202,4.5276,4.5284,4.5292,4.5379,4.5315,4.5319,4.5322,4.5515,4.5518,4.552,0,0,0,0,0,0,4.505,4.5064,4.5177,4.5125,4.514,4.5164,4.5195,4.5198,4.5217,4.5245,4.5249,4.5221,4.5275,4.5285,4.5347,4.5381,4.5322,4.5326,4.5512,4.5516,4.5519,4.5552,0,0,0,0,0,0,4.5046,4.5063,4.5089,4.5126,4.5142,4.523,4.5197,4.52,4.5226,4.5223,4.5262,4.5266,4.5274,4.534,4.5352,4.5387,4.533,4.5509,4.5514,4.5518,4.5548,4.5557,4.5564,0,0,0,0,0,4.504,4.5095,4.5091,4.5104,4.5176,4.5232,4.5242,4.525,4.5229,4.5256,4.5275,4.5265,4.5376,4.5347,4.536,4.5397,4.5507,4.5513,4.5518,4.5545,4.5555,4.5563,0,0,0,0,0,0,4.5061,4.51,4.5095,4.5164,4.5195,4.523,4.5264,4.526,4.5297,4.5293,4.5302,4.5311,4.5374,4.5392,4.5359,4.5469,4.5439,4.5447,4.5455,4.5464,4.5472,4.5466,4.5334,0,0,0,0,0,4.5073,4.5116,4.5147,4.5205,4.5221,4.524,4.5265,4.5269,4.5301,4.5314,4.5337,4.5369,4.5411,4.5439,4.5479,4.5551,4.556,4.5583,4.5591,4.5597,4.5604,4.5645,4.5656,4.5538,4.5537,4.5537,0,0,4.5099,4.5126,4.5152,4.521,4.5234,4.5278,4.5251,4.5298,4.5332,4.5321,4.5382,4.54,4.5436,4.5504,4.5535,4.5521,4.5639,4.5604,4.5608,4.5612,4.5651,4.5663,4.5673,4.5541,4.554,4.554,0,0,4.517,4.5194,4.5245,4.5271,4.5309,4.5322,4.5334,4.537,4.5382,4.5443,4.5437,4.5476,4.5549,4.5575,4.5598,4.5682,4.5674,4.5694,4.5734,4.5774,4.5783,4.5792,4.5822,4.5833,4.5701,4.5701,4.5701,0,4.5197,4.5263,4.5271,4.532,4.5346,4.534,4.5392,4.5417,4.5466,4.5484,4.5468,4.556,4.5584,4.5659,4.5679,4.5698,4.5713,4.569,4.5781,4.579,4.5798,4.5827,4.5838,4.5704,4.5703,4.5703,4.5703,0,4.5296,4.5342,4.5379,4.5428,4.5458,4.5508,4.5524,4.5554,4.5556,4.5571,4.5634,4.5663,4.571,4.5728,4.5729,4.5803,4.5794,4.5779,4.5749,4.5811,4.5839,4.585,4.5707,4.5706,4.5705,4.5705,0,0,4.538,4.5434,4.5447,4.547,4.5513,4.5549,4.5599,4.5646,4.5672,4.5706,4.575,4.5812,4.58,4.5826,4.5831,4.5866,4.5931,4.5847,4.5848,4.5862,4.6016,4.6027,4.604,4.5927,4.5929,4.5931,4.6013,0,4.5455,4.5544,4.5554,4.5634,4.5677,4.5673,4.5718,4.5749,4.5765,4.5804,4.5821,4.5866,4.5846,4.5862,4.5896,4.5916,4.5962,4.591,4.5968,4.597,4.5959,4.6054,4.6065,4.6141,4.6024,4.6026,4.6027,0,4.5554,4.5592,4.5677,4.5715,4.5734,4.5773,4.5818,4.5855,4.5891,4.59,4.5931,4.5932,4.5985,4.5953,4.6027,4.5992,4.6016,4.6029,4.6033,4.6038,4.6002,4.6063,4.6166,4.6177,4.6044,4.6043,4.6042,0,4.5608,4.5681,4.5741,4.5761,4.5806,4.5835,4.5855,4.5889,4.5917,4.5956,4.5975,4.6019,4.6043,4.6078,4.6091,4.6067,4.6165,4.6134,4.6175,4.6174,4.6195,4.6194,4.6304,4.6211,4.621,4.621,4.621,0,4.569,4.5742,4.5766,4.5803,4.5862,4.5874,4.5931,4.5951,4.5981,4.6023,4.6022,4.6061,4.6076,4.6117,4.6128,4.6188,4.6199,4.6208,4.6211,4.6209,4.6208,4.6225,4.622,4.6213,4.6213,4.6212,4.6211,0,4.576,4.5778,4.5844,4.5883,4.5894,4.5935,4.5969,4.6005,4.6021,4.6074,4.6087,4.6112,4.6161,4.6178,4.6237,4.6244,4.6315,4.6312,4.6303,4.6303,4.6343,4.6339,4.6468,4.6486,4.6381,4.6382,4.6382,0,4.5812,4.5852,4.5896,4.5924,4.5945,4.599,4.6019,4.6032,4.6062,4.6108,4.6139,4.6188,4.6228,4.6306,4.633,4.6376,4.6375,4.6417,4.6382,4.6379,4.6376,4.6374,4.6378,4.6424,4.6425,4.6425,4.6426,0,4.5902,4.591,4.5951,4.5997,4.6032,4.6068,4.6103,4.6126,4.6145,4.6179,4.623,4.6261,4.6322,4.6371,4.6418,4.644,4.6437,4.6437,4.6449,4.6448,4.6441,4.6446,4.6321,4.6434,4.6433,4.6433,4.6432,4.6432,4.5965,4.6001,4.6038,4.6085,4.6113,4.6147,4.6183,4.6204,4.6247,4.6298,4.6303,4.6358,4.6395,4.6458,4.6482,4.6525,4.6514,4.6531,4.6535,4.6539,4.6543,4.6434,4.6534,4.6534,4.6534,4.6533,4.6533,0,4.6056,4.608,4.6123,4.6173,4.621,4.6205,4.6244,4.6276,4.6324,4.6358,4.6398,4.6457,4.6505,4.6533,4.6581,4.6611,4.6611,4.6623,4.6621,4.6627,4.655,4.6535,4.6623,4.6623,4.6623,4.6623,4.6623,4.6623,4.6108,4.6169,4.6181,4.6257,4.628,4.6334,4.6357,4.6388,4.6416,4.6482,4.6522,4.6541,4.6573,4.6624,4.6668,4.6675,4.6693,4.6707,4.6713,4.6641,4.6632,4.6623,4.6609,4.6711,4.6711,4.6786,4.6787,4.6787]},{"header":{"parameterUnit":"m.s-1","parameterCategory":1,"la1":30.2991,"la2":30.254,"lo1":-89.0895,"lo2":-89.0444,"dy":0.0017,"dx":0.0017,"nx":28,"ny":28,"refTime":"2024-04-03T03:00:00:Z","depth":0,"parameterNumber":3,"parameterNumberName":"V-component_of_WINDS"},"data":[0,0,0,0,0,0,0,0,0,0,0,0,0,0,0,0,0,0,0,0,0,0,0,0,0,0,0,0,0,0,0,0,0,0,0,0,0,0,0,0,0,0,0,0,0,0,0,0,0,0,0,0,0,0,0,0,0,0,-2.7777,-2.7779,0,-2.7912,-2.7913,-2.7915,-2.795,-2.795,-2.7949,-2.7948,-2.8087,-2.8091,-2.8095,0,0,0,0,0,0,0,0,0,0,0,0,0,-2.7554,-2.7558,-2.7777,-2.7779,-2.7781,-2.7911,-2.7913,-2.7915,-2.795,-2.7949,-2.7949,-2.7948,-2.8085,-2.809,-2.8096,0,0,0,0,0,0,0,0,0,0,0,0,0,-2.7666,-2.756,-2.7777,-2.7814,-2.7819,-2.7911,-2.7913,-2.7916,-2.7951,-2.7949,-2.7948,-2.7947,-2.8083,-2.809,-2.8096,-2.8162,0,0,-2.8117,-2.812,0,0,0,0,0,0,0,0,-2.766,-2.7674,-2.7807,-2.7812,-2.7817,-2.7913,-2.7886,-2.7998,-2.7951,-2.7901,-2.7948,-2.7947,-2.803,-2.8041,-2.8069,-2.8169,-2.8174,-2.8117,-2.8122,-2.8124,-2.8126,0,0,0,0,0,0,0,-2.7652,-2.7669,-2.7831,-2.7809,-2.7815,-2.7825,-2.7839,-2.7907,-2.797,-2.7905,-2.7908,-2.7923,-2.8032,-2.8062,-2.8072,-2.8177,-2.8117,-2.8123,-2.8127,-2.813,-2.834,-2.8342,0,0,0,0,0,0,-2.7638,-2.7662,-2.7826,-2.7835,-2.7734,-2.783,-2.7846,-2.7883,-2.797,-2.7982,-2.7924,-2.7924,-2.8051,-2.8065,-2.8077,-2.8162,-2.8124,-2.8131,-2.8134,-2.8339,-2.8341,-2.8342,0,0,0,0,0,0,-2.7633,-2.7652,-2.7821,-2.7749,-2.7772,-2.7835,-2.7877,-2.7887,-2.7917,-2.7984,-2.7996,-2.7943,-2.8051,-2.8068,-2.8141,-2.8167,-2.8134,-2.814,-2.8337,-2.8339,-2.8342,-2.833,0,0,0,0,0,0,-2.7626,-2.765,-2.7675,-2.7749,-2.7775,-2.7882,-2.7878,-2.789,-2.7928,-2.793,-2.8005,-2.8016,-2.8051,-2.8131,-2.8148,-2.8176,-2.8145,-2.8335,-2.8338,-2.8341,-2.8329,-2.8332,-2.8335,0,0,0,0,0,-2.7618,-2.7666,-2.7676,-2.7695,-2.7807,-2.7883,-2.7898,-2.7937,-2.793,-2.7956,-2.8,-2.8014,-2.8162,-2.8138,-2.8158,-2.8188,-2.8333,-2.8337,-2.8341,-2.8327,-2.8332,-2.8335,0,0,0,0,0,0,-2.7592,-2.7676,-2.7688,-2.7761,-2.7815,-2.7889,-2.7923,-2.794,-2.7996,-2.7996,-2.8042,-2.8059,-2.813,-2.8166,-2.8139,-2.8258,-2.8248,-2.8255,-2.8231,-2.8236,-2.8239,-2.8229,-2.815,0,0,0,0,0,-2.7594,-2.7648,-2.7719,-2.7777,-2.7803,-2.7858,-2.7893,-2.7919,-2.7976,-2.7999,-2.8048,-2.8104,-2.8164,-2.8201,-2.8259,-2.8334,-2.8353,-2.8365,-2.8368,-2.837,-2.8376,-2.8421,-2.8428,-2.8354,-2.8354,-2.8354,0,0,-2.7601,-2.7653,-2.7684,-2.7773,-2.7818,-2.7874,-2.7877,-2.7935,-2.7978,-2.8008,-2.8081,-2.8119,-2.8185,-2.826,-2.8295,-2.8292,-2.8401,-2.8375,-2.8376,-2.8381,-2.8426,-2.8433,-2.8439,-2.8357,-2.8356,-2.8356,0,0,-2.7641,-2.7685,-2.7739,-2.7784,-2.7852,-2.7889,-2.7902,-2.7974,-2.8001,-2.8075,-2.8099,-2.8151,-2.8251,-2.8298,-2.8335,-2.8396,-2.8412,-2.8413,-2.843,-2.8473,-2.8479,-2.8485,-2.8508,-2.8516,-2.8419,-2.8419,-2.8419,0,-2.764,-2.7725,-2.7765,-2.7824,-2.7863,-2.7893,-2.7949,-2.7991,-2.8074,-2.8101,-2.8097,-2.8225,-2.8271,-2.8359,-2.8374,-2.8402,-2.842,-2.8405,-2.8475,-2.8481,-2.8486,-2.851,-2.8518,-2.8419,-2.8419,-2.8419,-2.8419,0,-2.7722,-2.778,-2.7816,-2.7896,-2.794,-2.7996,-2.8047,-2.8086,-2.8109,-2.8147,-2.8223,-2.828,-2.8351,-2.8374,-2.8396,-2.8466,-2.8462,-2.8465,-2.8457,-2.8493,-2.8516,-2.8525,-2.8419,-2.8419,-2.8419,-2.8419,0,0,-2.7748,-2.7852,-2.7864,-2.7902,-2.798,-2.8027,-2.8086,-2.8156,-2.819,-2.8247,-2.8299,-2.8385,-2.8389,-2.8431,-2.8459,-2.8497,-2.8545,-2.8497,-2.8499,-2.8505,-2.8628,-2.8626,-2.8636,-2.8556,-2.8557,-2.8559,-2.8623,0,-2.78,-2.7906,-2.7945,-2.8033,-2.8089,-2.812,-2.8172,-2.8226,-2.8264,-2.8318,-2.8359,-2.842,-2.842,-2.8446,-2.8485,-2.853,-2.857,-2.8526,-2.8606,-2.8609,-2.859,-2.8647,-2.8645,-2.8703,-2.8632,-2.8634,-2.8635,0,-2.7873,-2.7932,-2.8025,-2.8099,-2.8124,-2.817,-2.8239,-2.8289,-2.8353,-2.8377,-2.8425,-2.8451,-2.8517,-2.8503,-2.8595,-2.8564,-2.86,-2.8627,-2.8631,-2.8641,-2.8625,-2.866,-2.8722,-2.8731,-2.8649,-2.8648,-2.8647,0,-2.7886,-2.7988,-2.8058,-2.8089,-2.8176,-2.8208,-2.8246,-2.8308,-2.8349,-2.8409,-2.8436,-2.8503,-2.854,-2.8592,-2.8637,-2.8623,-2.8725,-2.8715,-2.875,-2.8749,-2.877,-2.8769,-2.884,-2.879,-2.879,-2.879,-2.879,0,-2.794,-2.7996,-2.8065,-2.8108,-2.8174,-2.8219,-2.8283,-2.8323,-2.8378,-2.8431,-2.8461,-2.851,-2.8565,-2.8621,-2.8656,-2.8729,-2.8745,-2.8768,-2.8777,-2.8766,-2.8763,-2.8791,-2.8788,-2.8792,-2.8792,-2.8791,-2.8791,0,-2.7965,-2.8013,-2.8092,-2.8168,-2.8189,-2.8234,-2.83,-2.8344,-2.8383,-2.845,-2.8468,-2.853,-2.8599,-2.8648,-2.8736,-2.876,-2.8838,-2.8846,-2.8817,-2.8821,-2.8854,-2.8851,-2.8947,-2.8963,-2.89,-2.89,-2.8901,0,-2.7997,-2.8041,-2.8123,-2.8161,-2.8199,-2.8258,-2.83,-2.8347,-2.839,-2.8467,-2.8502,-2.8573,-2.8632,-2.874,-2.8794,-2.8862,-2.8873,-2.8902,-2.8884,-2.8873,-2.8877,-2.8874,-2.888,-2.8905,-2.8906,-2.8906,-2.8906,0,-2.8049,-2.8072,-2.813,-2.8199,-2.8248,-2.8304,-2.836,-2.8389,-2.8447,-2.8493,-2.8564,-2.861,-2.8701,-2.8772,-2.8846,-2.8886,-2.8907,-2.8912,-2.8924,-2.8914,-2.8896,-2.8909,-2.8826,-2.8909,-2.8909,-2.8909,-2.8909,-2.8909,-2.8081,-2.8123,-2.8187,-2.8253,-2.83,-2.8353,-2.8399,-2.8444,-2.8504,-2.8582,-2.8606,-2.868,-2.8745,-2.8846,-2.8888,-2.8948,-2.8947,-2.8963,-2.8968,-2.8972,-2.8972,-2.8885,-2.8961,-2.8961,-2.8961,-2.8961,-2.8961,0,-2.8136,-2.818,-2.824,-2.8318,-2.837,-2.8384,-2.8448,-2.8491,-2.8556,-2.8614,-2.8672,-2.8755,-2.8824,-2.8884,-2.8957,-2.8993,-2.9005,-2.9011,-2.9009,-2.9019,-2.8968,-2.8952,-2.9,-2.9,-2.9,-2.9,-2.9,-2.9,-2.8172,-2.8244,-2.8274,-2.8372,-2.8415,-2.8488,-2.8524,-2.8573,-2.862,-2.8711,-2.8769,-2.8808,-2.8868,-2.8945,-2.901,-2.9026,-2.9052,-2.9057,-2.9075,-2.9027,-2.9022,-2.9018,-2.9003,-2.9061,-2.9061,-2.9121,-2.9122,-2.9122]}]]